Regional Weather Roundup
Issued by NWS

Home | Current Version | Previous Version | Text Only | Print | Product List | Glossary Off
Versions: 1 2 3 4 5 6 7 8 9 10 11 12 13 14 15 16 17 18 19 20 21 22 23 24 25 26 27 28 29 30 31 32 33 34 35 36 37 38 39 40 41 42 43 44 45 46 47 48 49 50

418
ASUS43 KFSD 222010
RWRSD

WEATHER ROUNDUP FOR SOUTH DAKOTA
NATIONAL WEATHER SERVICE SIOUX FALLS SD
300 PM CDT MON MAY 22 2017

NOTE: "FAIR" INDICATES FEW OR NO CLOUDS BELOW 12,000 FEET WITH NO
SIGNIFICANT WEATHER AND/OR OBSTRUCTIONS TO VISIBILITY.


SDZ001>005-009-010-012>017-222100-
NORTHWEST AND NORTH CENTRAL SOUTH DAKOTA

CITY           SKY/WX    TMP DP  RH WIND       PRES   REMARKS
BUFFALO          N/A     60  40  47 N16G25    29.98S
FAITH            N/A     59  41  51 N14G23    29.99S
MOBRIDGE       PTSUNNY   63  38  39 NW20      29.92F
$$

SDZ012>016-024>037-041>051-057-063-072>074-222100-
SOUTHWEST AND SOUTH CENTRAL SOUTH DAKOTA

CITY           SKY/WX    TMP DP  RH WIND       PRES   REMARKS
RAPID CTY ARPT CLOUDY    60  40  47 NW23G35   30.02F
PIERRE         PTSUNNY   56  42  59 N16       29.95R
CUSTER         CLOUDY    47  32  56 NW12G18   30.05F
ELLSWORTH AFB  MOSUNNY   59  37  44 NW21G28   30.00F
PHILIP         PTSUNNY   60  45  57 N16G25    29.97R
PINE RIDGE     LGT RAIN  50  45  83 SW12      30.02S
SPEARFISH      FAIR      55  39  54 NW16G24   30.07S
WINNER         TSTM      53  47  79 N9        29.93R
$$

SDZ004>011-016>023-039-040-222100-
NORTHEAST SOUTH DAKOTA

CITY           SKY/WX    TMP DP  RH WIND       PRES   REMARKS
ABERDEEN       CLOUDY    61  38  42 N9        29.89F
WATERTOWN      CLOUDY    58  40  51 N12       29.87R
BROOKINGS      LGT RAIN  56  48  74 CALM      29.85S
SISSETON         N/A     61  42  49 N17       29.85S
$$

SDZ017-020-022-023-036>040-048>070-222100-
SOUTHEAST SOUTH DAKOTA

CITY           SKY/WX    TMP DP  RH WIND       PRES   REMARKS
SIOUX FALLS    CLOUDY    58  50  75 W14       29.87R
HURON          LGT RAIN  51  48  89 N17       29.90R
CHAMBERLAIN    MOSUNNY   61  47  60 NW16      29.91S
MITCHELL       CLOUDY    58  48  69 N17       29.90R
YANKTON        MOSUNNY   59  49  69 W13       29.90S
$$

ABBREVIATIONS USED IN REMARKS
   TC - TEMPERATURE IN CELSIUS
  WCI - WIND CHILL INDEX
   HX - HEAT INDEX
  VSB - VISIBILITY





USA.gov is the U.S. government's official web portal to all federal, state and local government web resources and services.